User: anonymous   Login
Location: Columbia
(38.9520°N, 92.3340°W)
Time: 23:12:45
(UTC-05:00)
Language:

Cosmos 2219 Rocket - Orbit

View from above orbital plane
View from above orbital plane
View from above satellite
View from above satellite

Ground track
Ground track

The orbit data is extracted from the following two-line orbital elements,

1 22220U 92076B   17114.73706337 -.00000077 +00000-0 -14706-4 0  9990
2 22220 070.9992 171.7612 0013231 344.4974 146.1744 14.16412176262871
Epoch (UTC): 24 April 2017 17:41:22
Eccentricity: 0.0013231
inclination: 70.9992°
perigee height: 828 km
apogee height: 847 km
right ascension of ascending node: 171.7612°
argument of perigee: 344.4974°
revolutions per day: 14.16412176
mean anomaly at epoch: 146.1744°
orbit number at epoch: 26287

The dashed part of the orbit path shows where the satellite is in the earth's shadow,  

DLR